Observations

BIA Manual Entry


Date Temp Humidity Rainfall Dew Point Wind Direction Wind Speed Wind Pressure Condition Visibility
2025-05-27 09:59:41 31 70 25 180 11.4 1010 Partly Cloudy (Day) 20 KM
2025-05-27 09:00:09 30 73 25 200 11.4 1010 Partly Cloudy (Day) 20 KM
2025-05-27 08:00:32 28 84 25 180 5.7 1010 Partly Cloudy (Day) 20 km
2025-05-27 07:07:28 26 93 25 220 7.6 1009 Partly Cloudy (Day) 10 km
2025-05-27 06:01:13 26 94 25 200 5.7 1008 Partly Cloudy (Day) 10 km
2025-05-27 04:59:59 25 94 24 150 3.8 1008 Partly Cloudy (Night) 10km
2025-05-27 04:00:05 26 93 24 220 7.6 1008 Partly Cloudy (Night) 10 km
2025-05-27 03:00:01 26 93 25 200 5.7 1008 Partly Cloudy (Night) 10 km
2025-05-27 02:00:16 26 90 24 230 3.8 1009 Partly Cloudy (Night) 10 km
2025-05-27 00:58:34 26 90 25 210 5.7 1010 Lightning 10 km
2025-05-26 23:58:23 26 89 24 180 7.6 1010 Lightning 10 km
2025-05-26 22:58:18 27 87 25 170 5.7 1010 Lightning 10 km
2025-05-26 21:57:44 27 86 25 190 5.7 1010 Lightning 10 km
2025-05-26 20:56:05 27 88 0 25 130 3.8 1009 Cloudy 10 KM
2025-05-26 19:58:12 29 85 0 25 160 9.5 1009 Night Thunderstorm 10 KM
2025-05-26 18:58:02 30 73 0 25 300 7.6 1008 Night Thunderstorm 10 KM
2025-05-26 17:59:17 31 71 0 25 300 11.4 1008 Night Thunderstorm 15 KM
2025-05-26 17:00:46 31 74 25 290 17.1 1007 Partly Cloudy (Day) 20 KM
2025-05-26 15:59:56 31 66 25 300 17.1 1007 Thunderstorm 10 KM
2025-05-26 15:00:18 32 68 25 290 17.1 1007 Thunderstorm 10 KM
2025-05-26 14:01:20 30 76 3.0 26 330 7.6 1008 Thundershowers 10 KM
2025-05-26 13:01:10 28 81 24 050 5.7 1009 Thunderstorm 10 km
2025-05-26 13:00:45 28 81 24 050 5.7 1009 Thundershowers 10 km
2025-05-26 12:00:27 30 79 0.00 26 310 9.5 1009 Thundershowers 10KM
2025-05-26 10:58:30 28 89 26 250 9.5 1010 Showers 09 km